This is the latest recevied weather packets stored in our database for station/object iz1wiy-2. If no packets are shown the sender has not sent any weather packets the latest 1 day(s).
| Time | Temp. | Humidity | Pressure | Rain* | Wind** | Luminosity | Snow |
|---|---|---|---|---|---|---|---|
| 1777980003 | 18.33° C | 81% | 1012.4 hPa | 0 mm | 3.13 m/s, 208° | - | - |
| 1777979703 | 18.33° C | 81% | 1012.3 hPa | 0 mm | 3.58 m/s, 205° | - | - |
| 1777979404 | 18.33° C | 81% | 1012.3 hPa | 0 mm | 4.02 m/s, 202° | - | - |
| 1777979103 | 18.33° C | 81% | 1012.3 hPa | 0 mm | 4.02 m/s, 201° | - | - |
| 1777978803 | 18.33° C | 81% | 1012.2 hPa | 0 mm | 4.02 m/s, 203° | - | - |
| 1777978503 | 18.33° C | 81% | 1012.2 hPa | 0 mm | 3.58 m/s, 212° | - | - |
| 1777978203 | 18.33° C | 81% | 1012.1 hPa | 0 mm | 3.58 m/s, 215° | - | - |
| 1777977903 | 18.33° C | 82% | 1012.2 hPa | 0 mm | 3.58 m/s, 209° | - | - |
| 1777977603 | 18.33° C | 82% | 1012.2 hPa | 0 mm | 3.58 m/s, 206° | - | - |
| 1777977303 | 18.33° C | 82% | 1012.2 hPa | 0 mm | 3.13 m/s, 207° | - | - |
| 1777977003 | 18.33° C | 81% | 1012.3 hPa | 0 mm | 3.13 m/s, 214° | - | - |
| 1777976703 | 18.33° C | 82% | 1012.2 hPa | 0 mm | 3.58 m/s, 217° | - | - |
| 1777976403 | 18.33° C | 82% | 1012.1 hPa | 0 mm | 3.58 m/s, 219° | - | - |
| 1777976103 | 18.33° C | 83% | 1012 hPa | 0 mm | 3.58 m/s, 216° | - | - |
| 1777975803 | 18.33° C | 83% | 1012 hPa | 0 mm | 3.58 m/s, 220° | - | - |
| 1777975503 | 18.33° C | 83% | 1011.9 hPa | 0 mm | 3.58 m/s, 232° | - | - |
| 1777975204 | 18.33° C | 84% | 1011.8 hPa | 0 mm | 3.58 m/s, 219° | - | - |
| 1777974903 | 18.33° C | 84% | 1011.9 hPa | 0 mm | 3.13 m/s, 216° | - | - |
| 1777974603 | 17.78° C | 84% | 1011.8 hPa | 0 mm | 3.13 m/s, 228° | - | - |
| 1777974303 | 17.78° C | 84% | 1011.6 hPa | 0 mm | 3.13 m/s, 229° | - | - |
| 1777974003 | 17.78° C | 84% | 1011.7 hPa | 0 mm | 2.68 m/s, 233° | - | - |
| 1777973703 | 18.33° C | 84% | 1011.8 hPa | 0 mm | 1.79 m/s, 238° | - | - |
| 1777973403 | 18.33° C | 84% | 1011.7 hPa | 0 mm | 0.45 m/s, 235° | - | - |
| 1777973103 | 17.78° C | 84% | 1011.7 hPa | 0 mm | 0 m/s | - | - |
| 1777972803 | 17.22° C | 84% | 1011.6 hPa | 0 mm | 0 m/s | - | - |
* Rain latest hour (hover to see other rain measurements)
** Current wind speed in m/s (hover to see current wind gust speed)